Weather History for Hill City, KS

Change the Weather History Date:

Monday, December 31, 2012

  Actual Average Record
Temperature  
Mean Temperature 22 °F 29 °F  
Max Temperature 28 °F 41 °F 64 °F (1999)
Min Temperature 16 °F 16 °F -15 °F (1990)
Degree Days  
Heating Degree Days 44    
Moisture  
Dew Point 18 °F    
Average Humidity 88    
Maximum Humidity 93    
Minimum Humidity 71    
Precipitation  
Precipitation 0.06 in 0.02 in 0.06 in (2006)
Month to date precipitation 0.74 0.69  
Year to date precipitation 10.48 22.92  
Sea Level Pressure  
Sea Level Pressure 30.12 in    
Wind  
Wind Speed 12 mph (NNE)    
Max Wind Speed 20 mph    
Max Gust Speed 24 mph    
Visibility 3 miles    
Events Fog , Snow    
T = Trace of Precipitation, MM = Missing Value Source: NWS Daily Summary

Daily Weather History Graph

Daily Weather History Graph

Search for Another Location

Airport:

Trip Planner

Search our weather history database for the weather conditions in past years. The results will help you decide how hot, cold, wet, or windy it might be!

Date:

Astronomy

Dec. 31, 2012 Rise Set
Actual Time 7:59 AM CST 5:26 PM CST
Civil Twilight 7:29 AM CST 5:56 PM CST
Nautical Twilight 6:55 AM CST 6:29 PM CST
Astronomical Twilight 6:22 AM CST 7:02 PM CST
Moon 8:57 PM CST (12/31) 9:42 AM CST (12/31)
Length of Visible Light 10h 27m
Length of Day
9h 26m
Waning Gibbous, 90% of the Moon is Illuminated
Dec 31
Waning Gibbous
Jan 4
Last Quarter
Jan 11
New
Jan 18
First Quarter
Jan 26
Full

Hourly Weather History & Observations

Time (CST) Temp. Windchill Dew Point Humidity Pressure Visibility Wind Dir Wind Speed Gust Speed Precip Events Conditions
12:53 AM 27.0 °F 19.5 °F 19.0 °F 72% 30.15 in 10.0 mi North 6.9 mph - N/A   Mostly Cloudy
1:53 AM 26.1 °F 15.0 °F 18.0 °F 71% 30.12 in 10.0 mi NNE 12.7 mph - N/A   Clear
2:53 AM 26.1 °F 15.6 °F 18.0 °F 71% 30.14 in 10.0 mi NNE 11.5 mph - N/A   Clear
3:53 AM 26.1 °F 16.2 °F 18.0 °F 71% 30.15 in 10.0 mi NNE 10.4 mph - N/A   Overcast
4:53 AM 24.1 °F 13.1 °F 18.0 °F 77% 30.13 in 10.0 mi NE 11.5 mph - N/A   Overcast
5:53 AM 24.1 °F 13.1 °F 18.0 °F 77% 30.13 in 8.0 mi NE 11.5 mph - 0.00 in Snow Light Snow
6:53 AM 24.1 °F 13.1 °F 19.0 °F 81% 30.12 in 9.0 mi NE 11.5 mph - 0.00 in   Overcast
7:17 AM 23.0 °F 11.7 °F 19.4 °F 86% 30.06 in 2.0 mi NE 11.5 mph - 0.00 in Snow Light Snow
7:25 AM 23.0 °F 12.4 °F 19.4 °F 86% 30.06 in 1.5 mi NNE 10.4 mph - 0.00 in Snow Light Snow
7:41 AM 23.0 °F 11.7 °F 19.4 °F 86% 30.06 in 1.2 mi NE 11.5 mph - 0.00 in Snow Light Snow
8:53 AM 21.9 °F 11.0 °F 19.9 °F 92% 30.14 in 1.0 mi NE 10.4 mph - 0.01 in Snow Light Snow
9:01 AM 21.2 °F 9.5 °F 19.4 °F 93% 30.07 in 0.8 mi NNE 11.5 mph - 0.00 in Snow Light Snow
9:14 AM 21.2 °F 9.5 °F 19.4 °F 93% 30.08 in 1.2 mi NNE 11.5 mph - 0.00 in Snow Light Snow
9:24 AM 21.2 °F 8.3 °F 19.4 °F 93% 30.08 in 1.5 mi NNE 13.8 mph - 0.00 in Snow Light Snow
9:30 AM 21.2 °F 8.9 °F 19.4 °F 93% 30.08 in 1.2 mi NNE 12.7 mph - 0.00 in Snow Light Snow
9:51 AM 21.2 °F 8.3 °F 19.4 °F 93% 30.08 in 0.8 mi NNE 13.8 mph - 0.01 in Snow Light Snow
9:53 AM 21.9 °F 8.7 °F 19.9 °F 92% 30.15 in 0.8 mi NNE 15.0 mph - 0.01 in Snow Light Snow
10:09 AM 21.2 °F 8.9 °F 19.4 °F 93% 30.09 in 0.5 mi NNE 12.7 mph - 0.00 in Fog , Snow Snow
10:16 AM 21.2 °F 8.3 °F 19.4 °F 93% 30.09 in 0.2 mi NNE 13.8 mph - 0.00 in Fog , Snow Heavy Snow
10:33 AM 21.2 °F 8.9 °F 19.4 °F 93% 30.09 in 0.2 mi NNE 12.7 mph - 0.01 in Fog , Snow Snow
10:53 AM 21.9 °F 8.2 °F 19.9 °F 92% 30.17 in 0.2 mi NNE 16.1 mph - 0.01 in Fog , Snow Heavy Snow
11:27 AM 21.2 °F 6.8 °F 19.4 °F 93% 30.09 in 0.5 mi NNE 17.3 mph - 0.01 in Fog , Snow Snow
11:53 AM 21.9 °F 6.9 °F 19.0 °F 89% 30.15 in 0.5 mi NNE 19.6 mph 24.2 mph 0.01 in Fog , Snow Snow
12:15 PM 21.2 °F 6.4 °F 19.4 °F 93% 30.07 in 0.8 mi NNE 18.4 mph - N/A   Mist
12:22 PM 21.2 °F 7.3 °F 19.4 °F 93% 30.07 in 1.0 mi NNE 16.1 mph - N/A   Mist
12:34 PM 21.2 °F 8.3 °F 19.4 °F 93% 30.07 in 0.5 mi NNE 13.8 mph - N/A Fog Light Freezing Fog
12:53 PM 21.9 °F 7.8 °F 19.0 °F 89% 30.14 in 0.5 mi NNE 17.3 mph - N/A Fog Light Freezing Fog
1:39 PM 21.2 °F 7.3 °F 19.4 °F 93% 30.05 in 0.8 mi NNE 16.1 mph - 0.01 in Snow Light Snow
1:53 PM 21.9 °F 8.2 °F 19.0 °F 89% 30.12 in 0.8 mi NNE 16.1 mph - 0.01 in Snow Light Snow
2:00 PM 21.2 °F 7.8 °F 17.6 °F 86% 30.05 in 1.0 mi NNE 15.0 mph - 0.00 in Snow Light Snow
2:53 PM 21.9 °F 8.2 °F 18.0 °F 85% 30.14 in 1.5 mi NNE 16.1 mph - 0.00 in Snow Light Snow
3:02 PM 21.2 °F 7.3 °F 17.6 °F 86% 30.05 in 1.8 mi NNE 16.1 mph - 0.00 in Snow Light Snow
3:22 PM 21.2 °F 6.8 °F 17.6 °F 86% 30.05 in 1.5 mi NNE 17.3 mph 23.0 mph 0.00 in Snow Light Snow
3:33 PM 21.2 °F 7.3 °F 17.6 °F 86% 30.06 in 1.2 mi NNE 16.1 mph - 0.00 in Snow Light Snow
3:53 PM 21.0 °F 8.6 °F 18.0 °F 88% 30.15 in 1.0 mi NNE 12.7 mph - 0.00 in Snow Light Snow
4:01 PM 21.2 °F 7.3 °F 17.6 °F 86% 30.07 in 1.0 mi NNE 16.1 mph 21.9 mph 0.00 in Snow Light Snow
4:35 PM 21.2 °F 7.8 °F 17.6 °F 86% 30.08 in 1.0 mi NNE 15.0 mph - 0.00 in Snow Light Snow
4:53 PM 21.0 °F 7.6 °F 18.0 °F 88% 30.17 in 0.8 mi NNE 15.0 mph - 0.00 in Snow Light Snow
5:24 PM 19.4 °F 5.5 °F 17.6 °F 93% 30.09 in 1.2 mi NNE 15.0 mph - 0.00 in Snow Light Snow
5:31 PM 19.4 °F 6.6 °F 17.6 °F 93% 30.09 in 2.0 mi NNE 12.7 mph - 0.00 in   Overcast
5:42 PM 19.4 °F 5.5 °F 17.6 °F 93% 30.09 in 4.0 mi NNE 15.0 mph - 0.00 in   Overcast
5:53 PM 19.9 °F 7.3 °F 17.1 °F 89% 30.19 in 4.0 mi NNE 12.7 mph - 0.00 in Snow Light Snow
6:07 PM 19.4 °F 6.0 °F 17.6 °F 93% 30.10 in 2.5 mi North 13.8 mph - 0.00 in Snow Light Snow
6:29 PM 19.4 °F 6.0 °F 17.6 °F 93% 30.10 in 3.0 mi NNE 13.8 mph - 0.00 in   Overcast
6:53 PM 19.9 °F 6.7 °F 17.1 °F 89% 30.20 in 4.0 mi NNE 13.8 mph - 0.00 in   Overcast
7:53 PM 19.0 °F 8.2 °F 17.1 °F 92% 30.22 in 3.0 mi NNE 9.2 mph - N/A   Overcast
8:09 PM 19.4 °F 8.6 °F 15.8 °F 86% 30.13 in 3.0 mi NNE 9.2 mph - N/A   Overcast
8:53 PM 16.0 °F 7.4 °F 14.0 °F 92% 30.25 in 6.0 mi NNE 5.8 mph - N/A   Overcast
9:53 PM 18.0 °F - 16.0 °F 92% 30.26 in 4.0 mi Calm Calm - 0.00 in Snow Light Snow
10:08 PM 17.6 °F - 15.8 °F 93% 30.17 in 2.5 mi Calm Calm - N/A Snow Light Snow
10:41 PM 19.4 °F 12.8 °F 15.8 °F 86% 30.18 in 2.0 mi North 4.6 mph - 0.01 in Snow Light Snow
10:53 PM 18.0 °F 11.1 °F 16.0 °F 92% 30.28 in 3.0 mi North 4.6 mph - 0.01 in Snow Light Snow
11:34 PM 17.6 °F 10.7 °F 15.8 °F 93% 30.19 in 5.0 mi North 4.6 mph - 0.00 in   Overcast
11:53 PM 18.0 °F 11.1 °F 16.0 °F 92% 30.29 in 4.0 mi North 4.6 mph - 0.00 in   Overcast